[[{"header":{"parameterUnit":"m.s-1","parameterCategory":1,"la1":30.2991,"la2":30.254,"lo1":-89.0895,"lo2":-89.0444,"dy":0.0017,"dx":0.0017,"nx":28,"ny":28,"refTime":"2025-08-20T09:00:00:Z","depth":0,"parameterNumber":2,"parameterNumberName":"U-component_of_WINDS"},"data":[0,0,0,0,0,0,0,0,0,0,0,0,0,0,0,0,0,0,0,0,0,0,0,0,0,0,0,0,0,0,0,0,0,0,0,0,0,0,0,0,0,0,0,0,0,0,0,0,0,0,0,0,0,0,0,0,0,0,0.2047,0.2046,0,0.1973,0.1972,0.1971,0.1795,0.1792,0.1788,0.1784,0.1733,0.1735,0.1737,0,0,0,0,0,0,0,0,0,0,0,0,0,0.2054,0.2054,0.2047,0.2046,0.2045,0.1973,0.1972,0.1971,0.1796,0.1791,0.1787,0.1783,0.1732,0.1734,0.1737,0,0,0,0,0,0,0,0,0,0,0,0,0,0.2023,0.2055,0.2047,0.1948,0.1939,0.1973,0.1972,0.197,0.1797,0.1791,0.1786,0.1781,0.1731,0.1734,0.1737,0.1869,0,0,0.1747,0.1748,0,0,0,0,0,0,0,0,0.2025,0.2023,0.1964,0.1955,0.1944,0.1887,0.1955,0.1937,0.1798,0.1852,0.1784,0.1778,0.179,0.1788,0.1787,0.1866,0.1864,0.1747,0.1749,0.175,0.1751,0,0,0,0,0,0,0,0.2027,0.2025,0.2018,0.1963,0.1951,0.1913,0.1903,0.1951,0.1854,0.1847,0.1833,0.1826,0.1784,0.1785,0.1785,0.1863,0.1747,0.175,0.1752,0.1753,0.2038,0.2044,0,0,0,0,0,0,0.2041,0.2028,0.202,0.2016,0.1971,0.1918,0.1906,0.1912,0.1853,0.1838,0.1831,0.1818,0.1782,0.1781,0.1782,0.1926,0.175,0.1753,0.1755,0.2033,0.204,0.2046,0,0,0,0,0,0,0.2042,0.2042,0.2023,0.2018,0.2013,0.1923,0.1931,0.1913,0.1913,0.184,0.1824,0.1848,0.1778,0.1778,0.1845,0.1922,0.1755,0.1758,0.2026,0.2035,0.2043,0.2219,0,0,0,0,0,0,0.2043,0.2043,0.2089,0.202,0.2013,0.2083,0.1936,0.1916,0.1916,0.1899,0.1852,0.184,0.1773,0.1841,0.1848,0.1924,0.176,0.2019,0.203,0.204,0.2206,0.2233,0.2256,0,0,0,0,0,0.2043,0.2149,0.2092,0.2092,0.2068,0.2088,0.2085,0.1999,0.1923,0.197,0.1922,0.1841,0.1912,0.1849,0.1856,0.1934,0.2014,0.2027,0.2039,0.2195,0.2228,0.2255,0,0,0,0,0,0,0.224,0.2138,0.2074,0.2159,0.2132,0.2058,0.2115,0.2038,0.2038,0.2023,0.1924,0.1915,0.1995,0.1972,0.1903,0.2053,0.1949,0.1964,0.2066,0.2096,0.212,0.2125,0.1763,0,0,0,0,0,0.229,0.2309,0.2222,0.2306,0.2294,0.2207,0.2213,0.2147,0.2119,0.211,0.2067,0.2048,0.2065,0.208,0.2092,0.2201,0.2188,0.2258,0.2282,0.2303,0.2317,0.2367,0.2396,0.2088,0.2088,0.2088,0,0,0.2401,0.2347,0.2367,0.2343,0.2314,0.2339,0.2199,0.2234,0.2252,0.2118,0.2174,0.2142,0.2115,0.2201,0.2237,0.2184,0.2398,0.2319,0.2336,0.2339,0.2384,0.2413,0.2439,0.2097,0.2095,0.2094,0,0,0.2612,0.2574,0.2635,0.2606,0.256,0.25,0.2515,0.245,0.242,0.2473,0.237,0.2394,0.2427,0.2409,0.2405,0.2599,0.2524,0.2607,0.2736,0.2786,0.2811,0.2832,0.2898,0.2923,0.2621,0.2621,0.2622,0,0.2757,0.2783,0.2679,0.2715,0.2708,0.2575,0.2638,0.2618,0.2583,0.2583,0.2521,0.2552,0.2526,0.2603,0.2648,0.2651,0.2665,0.2612,0.2814,0.2834,0.2853,0.2914,0.294,0.2631,0.263,0.2629,0.2628,0,0.296,0.2981,0.3037,0.2993,0.2992,0.3043,0.295,0.2962,0.2895,0.2843,0.2897,0.2858,0.2856,0.287,0.2812,0.2938,0.2905,0.2831,0.2724,0.2893,0.295,0.2973,0.2646,0.2642,0.2639,0.2637,0,0,0.3299,0.3188,0.3211,0.3186,0.3122,0.3138,0.3183,0.3171,0.3182,0.3161,0.3196,0.3222,0.3148,0.3144,0.3081,0.3125,0.3275,0.3044,0.3041,0.3086,0.3408,0.3463,0.3492,0.3224,0.3228,0.3231,0.3409,0,0.3494,0.3554,0.3458,0.3543,0.3559,0.343,0.3468,0.3435,0.3386,0.3396,0.3345,0.3362,0.3267,0.3261,0.3299,0.3249,0.3339,0.3235,0.3258,0.326,0.3267,0.3522,0.3582,0.3752,0.3431,0.3435,0.3437,0,0.373,0.3707,0.3791,0.3713,0.3716,0.3751,0.3729,0.374,0.37,0.366,0.3649,0.3569,0.361,0.3505,0.356,0.3491,0.3494,0.3471,0.3475,0.3474,0.3359,0.3527,0.3805,0.383,0.3472,0.3469,0.3467,0,0.3963,0.3955,0.4001,0.3985,0.3897,0.3924,0.389,0.3843,0.384,0.3823,0.382,0.3813,0.3809,0.3806,0.3727,0.3658,0.379,0.368,0.3761,0.3763,0.3796,0.3795,0.4077,0.3801,0.3801,0.38,0.38,0,0.4189,0.4245,0.4103,0.4132,0.419,0.408,0.4143,0.4097,0.4054,0.4074,0.3967,0.3989,0.3883,0.3896,0.3835,0.3887,0.3888,0.3859,0.3842,0.3867,0.3871,0.3869,0.3855,0.3807,0.3805,0.3804,0.3803,0,0.446,0.4367,0.4408,0.4317,0.4295,0.4342,0.4267,0.4291,0.4231,0.4258,0.4258,0.4167,0.4175,0.4093,0.4091,0.4049,0.4129,0.4093,0.414,0.4128,0.4211,0.4204,0.4502,0.4534,0.424,0.4243,0.4245,0,0.461,0.4648,0.4557,0.4557,0.4525,0.453,0.4522,0.4416,0.4414,0.4365,0.4396,0.4392,0.4384,0.4403,0.434,0.4335,0.4297,0.4401,0.4296,0.4318,0.4295,0.4292,0.4294,0.4424,0.4428,0.4431,0.4433,0,0.4885,0.4834,0.4823,0.4795,0.4786,0.4761,0.473,0.4739,0.4623,0.4627,0.4627,0.4619,0.4607,0.4606,0.4586,0.4557,0.4477,0.4465,0.4483,0.451,0.4533,0.4518,0.4198,0.446,0.4457,0.4455,0.4454,0.4453,0.5097,0.5121,0.5058,0.5049,0.5011,0.4982,0.4997,0.4935,0.4931,0.4906,0.4846,0.4856,0.4811,0.4774,0.4751,0.476,0.471,0.4737,0.4744,0.4751,0.4765,0.4531,0.4757,0.4756,0.4755,0.4755,0.4754,0,0.5363,0.5313,0.5304,0.5257,0.525,0.5164,0.5124,0.5125,0.5132,0.5092,0.5081,0.5081,0.5076,0.5009,0.4997,0.5017,0.4979,0.5017,0.5015,0.5008,0.4812,0.4796,0.5047,0.5047,0.5047,0.5047,0.5047,0.5047,0.55,0.5534,0.5475,0.549,0.5442,0.5443,0.5427,0.54,0.5366,0.5366,0.5358,0.531,0.5259,0.5241,0.5233,0.5214,0.5214,0.5264,0.5233,0.5051,0.5023,0.4996,0.498,0.5266,0.5266,0.5427,0.5429,0.543]},{"header":{"parameterUnit":"m.s-1","parameterCategory":1,"la1":30.2991,"la2":30.254,"lo1":-89.0895,"lo2":-89.0444,"dy":0.0017,"dx":0.0017,"nx":28,"ny":28,"refTime":"2025-08-20T09:00:00:Z","depth":0,"parameterNumber":3,"parameterNumberName":"V-component_of_WINDS"},"data":[0,0,0,0,0,0,0,0,0,0,0,0,0,0,0,0,0,0,0,0,0,0,0,0,0,0,0,0,0,0,0,0,0,0,0,0,0,0,0,0,0,0,0,0,0,0,0,0,0,0,0,0,0,0,0,0,0,0,2.7159,2.7157,0,2.7007,2.7005,2.7003,2.6704,2.6699,2.6693,2.6687,2.654,2.6542,2.6544,0,0,0,0,0,0,0,0,0,0,0,0,0,2.7202,2.7202,2.7159,2.7157,2.7155,2.7007,2.7005,2.7003,2.6706,2.6698,2.6691,2.6684,2.654,2.6542,2.6544,0,0,0,0,0,0,0,0,0,0,0,0,0,2.713,2.7203,2.7159,2.6989,2.6972,2.7007,2.7005,2.7002,2.6707,2.6698,2.6689,2.6681,2.6539,2.6542,2.6544,2.6736,0,0,2.6551,2.6552,0,0,0,0,0,0,0,0,2.7135,2.7129,2.7016,2.7,2.6982,2.6865,2.6966,2.6913,2.6709,2.6808,2.6687,2.6677,2.6656,2.6649,2.664,2.6729,2.6723,2.6552,2.6553,2.6554,2.6555,0,0,0,0,0,0,0,2.714,2.7134,2.7099,2.7014,2.6994,2.6923,2.6903,2.6954,2.6784,2.6799,2.6777,2.6762,2.6645,2.6638,2.6634,2.6721,2.6552,2.6554,2.6555,2.6556,2.6961,2.697,0,0,0,0,0,0,2.7168,2.714,2.7104,2.7094,2.7038,2.6929,2.6907,2.6912,2.6782,2.6754,2.677,2.6749,2.6638,2.6632,2.6628,2.6843,2.6554,2.6556,2.6558,2.6951,2.6963,2.6973,0,0,0,0,0,0,2.717,2.7168,2.711,2.7111,2.7098,2.6938,2.6946,2.6913,2.6905,2.676,2.673,2.6793,2.6631,2.6624,2.6711,2.6834,2.6557,2.656,2.6941,2.6955,2.6968,2.7277,0,0,0,0,0,0,2.7173,2.717,2.7239,2.7115,2.7099,2.7193,2.6953,2.6917,2.6909,2.688,2.6774,2.6748,2.6624,2.6709,2.6713,2.6832,2.6561,2.6929,2.6947,2.6963,2.7255,2.73,2.7338,0,0,0,0,0,2.7175,2.7334,2.7244,2.7242,2.7181,2.7201,2.7192,2.7043,2.6921,2.699,2.6897,2.6752,2.6821,2.672,2.6723,2.6844,2.692,2.6942,2.6962,2.7236,2.7291,2.7337,0,0,0,0,0,0,2.7481,2.7315,2.7213,2.7336,2.7285,2.715,2.7233,2.7106,2.709,2.7064,2.6883,2.6862,2.6972,2.6917,2.6808,2.7024,2.6847,2.687,2.7055,2.7106,2.7147,2.7157,2.6563,0,0,0,0,0,2.7562,2.7588,2.7443,2.7566,2.7545,2.7395,2.7398,2.7287,2.7228,2.7205,2.7118,2.7069,2.7079,2.709,2.7091,2.7246,2.7219,2.7332,2.7373,2.7408,2.7429,2.7508,2.7556,2.7042,2.7041,2.7041,0,0,2.7731,2.7643,2.7672,2.7625,2.7572,2.7606,2.7378,2.7424,2.7448,2.7213,2.7287,2.7224,2.7157,2.7279,2.7328,2.7236,2.7566,2.7435,2.7464,2.7465,2.7534,2.7583,2.7626,2.7056,2.7053,2.7051,0,0,2.8054,2.7991,2.8085,2.8037,2.7959,2.7858,2.7882,2.7767,2.7714,2.7786,2.761,2.7639,2.766,2.7619,2.7602,2.7914,2.7779,2.792,2.8136,2.8215,2.8255,2.829,2.8401,2.8443,2.7942,2.7943,2.7943,0,2.8274,2.8315,2.8151,2.8207,2.8193,2.798,2.8076,2.8038,2.7967,2.7963,2.7861,2.7883,2.7823,2.7932,2.8008,2.8001,2.8024,2.793,2.8262,2.8296,2.8326,2.8429,2.8472,2.796,2.7958,2.7956,2.7954,0,2.8589,2.8621,2.8708,2.864,2.8636,2.8713,2.8563,2.858,2.8471,2.8383,2.846,2.8381,2.8362,2.8381,2.8277,2.8477,2.8421,2.8294,2.8113,2.8395,2.8489,2.8528,2.7985,2.7979,2.7973,2.7969,0,0,2.9097,2.8939,2.8974,2.8941,2.8841,2.8864,2.8933,2.8912,2.8929,2.8889,2.8943,2.8967,2.8848,2.8828,2.8718,2.8787,2.9039,2.865,2.8646,2.8724,2.9255,2.935,2.9399,2.8951,2.8958,2.8963,2.926,0,2.9397,2.9501,2.9357,2.9494,2.9522,2.9322,2.9382,2.933,2.925,2.9265,2.9177,2.9196,2.9038,2.9025,2.9085,2.8996,2.9143,2.8973,2.9,2.9003,2.9021,2.9448,2.9548,2.9832,2.9296,2.9302,2.9307,0,2.9759,2.9733,2.9873,2.9765,2.9771,2.9827,2.9797,2.9814,2.9751,2.9688,2.9668,2.9536,2.9599,2.9426,2.951,2.9398,2.9401,2.936,2.9367,2.9362,2.9171,2.9454,2.9919,2.9961,2.9363,2.9359,2.9355,0,3.0114,3.0115,3.0198,3.0177,3.0053,3.0097,3.0049,2.9977,2.9974,2.995,2.9947,2.9932,2.9924,2.9917,2.9786,2.9672,2.9888,2.9703,2.9838,2.9842,2.989,2.9889,3.0362,2.9898,2.9897,2.9896,2.9895,0,3.0462,3.0555,3.0355,3.0407,3.0506,3.0342,3.0447,3.0378,3.0317,3.0353,3.0182,3.0221,3.0045,3.0067,2.9965,3.0051,3.005,3.0002,2.9973,3.0016,3.0022,3.0014,2.999,2.9907,2.9905,2.9902,2.9901,0,3.0873,3.0743,3.082,3.0697,3.0669,3.0748,3.0644,3.0688,3.0598,3.0647,3.0649,3.0509,3.0525,3.0394,3.0387,3.0319,3.0452,3.0391,3.0473,3.0452,3.0595,3.0583,3.1077,3.1134,3.0637,3.0642,3.0646,0,3.1102,3.1168,3.1053,3.1063,3.1023,3.1043,3.1039,3.0883,3.0886,3.0821,3.0874,3.0876,3.0868,3.0904,3.0804,3.0798,3.0733,3.0907,3.0731,3.0772,3.0734,3.0731,3.0737,3.0944,3.095,3.0955,3.0959,0,3.1522,3.1454,3.1453,3.1432,3.1432,3.1408,3.1373,3.1393,3.1223,3.1237,3.1249,3.1244,3.1236,3.124,3.1215,3.1167,3.1037,3.1016,3.1046,3.1089,3.1133,3.111,3.0571,3.1004,3.1,3.0997,3.0994,3.0992,3.1846,3.1896,3.1822,3.1828,3.1786,3.1758,3.1793,3.1708,3.1715,3.1693,3.1603,3.1633,3.1571,3.1523,3.1489,3.1512,3.1428,3.1473,3.1484,3.1497,3.1522,3.1132,3.1507,3.1505,3.1504,3.1503,3.1502,0,3.2255,3.2198,3.2206,3.2161,3.2167,3.2042,3.1998,3.2012,3.2039,3.1992,3.1988,3.2005,3.2009,3.1911,3.1903,3.1941,3.1881,3.1944,3.1938,3.193,3.1598,3.1571,3.1993,3.1993,3.1993,3.1993,3.1992,3.1992,3.2468,3.2545,3.2471,3.2528,3.247,3.2496,3.2482,3.2457,3.2418,3.2443,3.2445,3.238,3.2313,3.2299,3.2299,3.227,3.2275,3.2359,3.231,3.2001,3.1953,3.1908,3.1881,3.2362,3.2362,3.2639,3.2641,3.2643]}]]